www.pogodaiklimat.ru

Погода и климат >> Архив погоды >> Египет >> Каир


АРХИВ ПОГОДЫ в Каире

Время (UTC), дата Ветер
(напр.,м/с)
 
Видим.   Явления Облачность Т
(С)
Тd
(С)
f
(%)
Тe
(С)
Тes
(С)
Комфортность P
(гПа)
Po
(гПа)
Тmin
(С)
Tmax
(С)
R
(мм)
R24
(мм)
S
(см)
03 12.08 В 2 10 км ясно +26.1 +17.5 59 +30 +30 душно 1006.2 997.7
06 12.08 СВ 2 10 км ясно +29.4 +14.4 40 +31 +39 жарко 1006.5 998.1 +26.1
09 12.08 ЮЗ 2 10 км ясно +35.6 +8.4 19 +34 +55 опасность
солнечного
удара
1006.3 998.1
12 12.08 З 4 10 км ясно +37.7 +9.3 18 +36 +48 очень
жарко
1005.5 997.4
15 12.08 СЗ 4 10 км ясно +36.6 +12.1 23 +36 +38 очень
жарко
1003.8 995.6
18 12.08 С 5 10 км ясно +32.6 +17.6 41 +37 +37 очень
душно
1005.0 996.7 +37.9
21 12.08 СВ 4 10 км ясно +29.4 +22.1 65 +38 +38 очень
душно
1006.4 998.0
00 13.08 С 2 10 км ясно +27.3 +22.9 77 +36 +36 очень
душно
1006.0 997.6
03 13.08 С 2 10 км ясно +26.3 +22.8 81 +35 +35 очень
душно
1006.3 997.8
06 13.08 С 2 10 км ясно +28.1 +22.6 72 +37 +44 очень
душно
1006.8 998.4 +26.0
09 13.08 СЗ 3 10 км ясно +32.9 +19.0 44 +38 +56 опасность
солнечного
удара
1006.8 998.5
12 13.08 С 4 10 км ясно +36.9 +13.2 24 +37 +48 очень
жарко
1005.5 997.3
15 13.08 С 6 10 км ясно +36.1 +8.8 19 +34 +35 очень
жарко
1005.3 997.1
18 13.08 С 6 10 км ясно +31.7 +20.9 53 +39 +39 очень
душно
1006.8 998.5 +37.2
21 13.08 СВ 3 10 км ясно +29.3 +20.2 58 +36 +36 очень
душно
1008.0 999.6
00 14.08 С 2 10 км ясно +27.7 +20.8 66 +35 +35 очень
душно
1007.4 999.0
03 14.08 СВ 2 10 км ясно +26.1 +20.1 70 +32 +32 очень
душно
1007.1 998.6
06 14.08 штиль 0 10 км 4/4 600 м
[Cu med, cong]
+29.8 +19.4 54 +36 +41 очень
душно
1007.9 999.5 +25.8
09 14.08 СЗ 3 10 км ясно +35.0 +13.5 27 +35 +53 опасность
солнечного
удара
1007.9 999.7
12 14.08 З 3 10 км ясно +37.8 +7.7 16 +36 +48 очень
жарко
1007.3 999.1
15 14.08 С 6 10 км ясно +37.4 +11.4 21 +37 +38 очень
жарко
1006.8 998.6
18 14.08 СВ 5 10 км ясно +33.4 +16.7 37 +36 +36 очень
душно
1007.7 999.4 +38.2
21 14.08 В 5 10 км ясно +31.3 +16.5 41 +34 +34 душно 1007.8 999.5
00 15.08 С 2 10 км ясно +30.7 +12.1 32 +31 +31 жарко 1006.9 998.6
03 15.08 СВ 2 10 км ясно +28.9 +13.7 39 +31 +31 жарко 1006.6 998.2
06 15.08 ЮЗ 2 10 км ясно +33.6 +10.2 24 +33 +40 жарко 1007.9 999.6 +28.4
09 15.08 ЮЗ 3 10 км ясно +38.5 +7.3 15 +36 +54 опасность
солнечного
удара
1008.1 1000.0
12 15.08 ЮЗ 5 10 км ясно +41.8 +6.2 12 +39 +47 очень
жарко
1006.3 998.3
15 15.08 ЮЗ 5 10 км ясно +41.6 +3.8 10 +38 +40 очень
жарко
1004.5 996.5
18 15.08 С 6 10 км ясно +35.3 +17.4 35 +39 +39 очень
душно
1005.9 997.7 +42.4
21 15.08 С 4 10 км ясно +30.3 +20.6 56 +37 +37 очень
душно
1008.0 999.6
00 16.08 С 4 10 км ясно +27.8 +23.4 77 +38 +38 очень
душно
1007.8 999.4
03 16.08 С 3 4000 м дымка ясно +27.2 +24.3 84 +38 +38 очень
душно
1008.3 999.8
06 16.08 С 3 4000 м дымка ясно +28.3 +24.3 79 +40 +46 очень
душно
1009.2 1000.8 +27.2
09 16.08 С 3 6000 м мгла ясно +33.3 +21.5 50 +41 +57 опасность
перегрева
1009.2 1000.9
12 16.08 СЗ 5 6000 м мгла 3/3 600 м
[Cu med, cong]
+36.7 +20.5 39 +43 +49 опасность
перегрева
1007.7 999.5
15 16.08 С 5 6000 м мгла ясно +35.1 +21.4 45 +43 +44 опасность
перегрева
1007.3 999.1
18 16.08 С 6 10 км ясно +30.9 +23.0 63 +41 +41 опасность
перегрева
1009.1 1000.7 +37.4
21 16.08 СВ 5 10 км ясно +28.4 +23.1 73 +38 +38 очень
душно
1009.8 1001.4
00 17.08 СВ 3 10 км ясно +26.8 +22.9 79 +36 +36 очень
душно
1009.5 1001.0
03 17.08 С 2 10 км ясно +25.6 +21.9 80 +33 +33 очень
душно
1010.0 1001.5
06 17.08 С 2 10 км ясно +27.2 +21.8 72 +35 +42 очень
душно
1010.6 1002.1 +25.4
09 17.08 С 2 10 км ясно +31.5 +19.5 49 +37 +58 опасность
солнечного
удара
1010.6 1002.2
15 17.08 СЗ 6 10 км 3/3
[Cu med, cong]
+36.2 +15.3 29 +38 +38 очень
душно
1007.4 999.2
18 17.08 С 5 10 км ясно +31.2 +22.8 61 +41 +41 опасность
перегрева
1008.2 999.9 +36.6
21 17.08 С 4 10 км ясно +27.5 +21.1 68 +35 +35 очень
душно
1009.2 1000.7
00 18.08 СЗ 3 10 км ясно +26.4 +21.8 76 +34 +34 очень
душно
1009.0 1000.5
03 18.08 СЗ 3 10 км 3/3 600 м
[Cu med, cong]
+26.0 +22.3 80 +34 +34 очень
душно
1008.6 1000.1
06 18.08 СЗ 5 10 км 5/5 600 м
[Cu med, cong]
+27.7 +23.3 77 +37 +39 очень
душно
1009.0 1000.6 +25.7
09 18.08 З 4 10 км 4/4 600 м
[Cu med, cong]
+31.8 +19.4 48 +38 +46 очень
душно
1008.6 1000.3
12 18.08 СЗ 3 10 км 4/4 600 м
[Cu med, cong]
+33.9 +16.7 36 +37 +44 очень
душно
1007.7 999.4
15 18.08 СЗ 5 10 км 4/4 600 м
[Cu med, cong]
+33.9 +16.7 36 +37 +37 очень
душно
1007.4 999.1
18 18.08 СЗ 4 10 км ясно +29.7 +17.8 49 +34 +34 очень
душно
1008.9 1000.5 +34.6

 

Местоположение метеостанции Каир (Египет): широта 30.13 долгота 31.40 высота над уровнем моря 74 м.

В архиве по умолчанию представлена погода в Каире за последнюю неделю. Архивные данные за месяц целиком и за предыдущие месяцы, начиная с января 2011 года, Вы можете получить, выбрав интересующий диапазон дат из раскрывающегося списка и нажав кнопку "Ввод!".


*Определитесь, кто Вы:
робот инопланетянин человек

Внимание! Время в таблицах - всемирное. Для получения местного времени необходимо прибавить поправку, которая равна 2 ч.

Смотрите также архив погоды в соседних городах и на ближайших метеорологических станциях:

Погода в Исмаилии (Египет) (97 км)
Погода в Вади-эль-Натруон (Египет) (119 км)
Погода в Рас-Седре (Египет) (141 км)
Погода в Порт-Саиде (Египет) (151 км)
Погода в Балтиме (Египет) (161 км)
Погода в Александрии (Египет) (183 км)
Погода в Абу Редис (Египет) (220 км)
Погода в Нехеле (Египет) (226 км)
Погода в Миня (Египет) (237 км)
Погода в Эль-Арише (Египет) (255 км)

Пояснения к столбцам:

Ветер - указаны скорость ветра в м/с - средняя за 10 мин, порывы в срок и между сроками (в фигурных скобках) и направление, откуда дует ветер: С - северный, СВ - северо-восточный, В - восточный, ЮВ - юго-восточный, Ю - южный, ЮЗ - юго-западный, З - западный, СЗ - северо-западный.
Видимость - горизонтальная дальность видимости в метрах или километрах. При видимости от 1 до 10 км при отсутствии осадков обычно наблюдается дымка, при ухудшении видимости до 1 км и менее - туман. В сухую погоду видимость может ухудшаться дымом, пылью или мглою.
Явления - указаны атмосферные явления, наблюдавшиеся в срок или в последний час перед сроком; фигурными скобками обозначены явления, наблюдавшиеся между сроками (за 1-3 часа до срока); квадратными скобками обозначены град или гололедные отложения с указанием их диаметра в мм.
Облачность - указаны через наклонную черту общая и нижняя облачность в баллах и высота нижней границы облаков в метрах; квадратными скобками обозначены формы облаков: Ci - перистые, Cs - перисто-слоистые, Cc - перисто-кучевые, Ac - высококучевые, As - высокослоистые, Sc - слоисто-кучевые, Ns - слоисто-дождевые, Cu - кучевые, Cb - кучево-дождевые. Подробнее классификацию облаков см. в Атласе облаков (PDF).
T - Температура воздуха - температура, измеренная на высоте 2 м над землей.
Td - Температура точки росы - температура, при понижении до которой содержащийся в воздухе водяной пар достигнет насыщения.
f - Относительная влажность воздуха - влажноcть воздуха, измеренная на высоте 2 м над землей.
Te - Эффективная температура - температура, которую ощущает одетый по сезону человек в тени. Характеристика душности погоды. При расчете учитывается влияние влажности воздуха и скорости ветра на теплоощущения человека.
Tes - Эффективная температура на солнце - температура, которую ощущает человек, с поправкой на солнечный нагрев. Характеристика знойности погоды. Зависит от высоты солнца над горизонтом, облачности и скорости ветра. Ночью, в пасмурную погоду, а также при ветре 12 м/с и более поправка равна нулю.
P - Атмосферное давление - приведенное к уровню моря атмосферное давление.
Po - Атмосферное давление - измеренное на уровне метеостанции атмосферное давление.
Tmin - Минимальная температура - минимум температуры воздуха на высоте 2 м над землей.
Tmax - Максимальная температура - максимум температуры воздуха на высоте 2 м над землей.
R - Количество осадков - Количество выпавших осадков за период времени, мм. При наведении курсора мыши на число - период времени, за который выпало указанное количество осадков.
R24 - Количество осадков - Количество выпавших осадков за 24 часа, мм.
S - Снежный покров - Высота снежного покрова, см. При наведении курсора мыши на число - состояние снежного покрова и степень покрытия местности в баллах.